#timestamp,LO_Frequency,Hit,StdDev 
1544709615.8,286047001.6,N
1544709635.7,286047001.8,N
1544709655.5,286047004.1,N
1544709675.3,286047002.9,N
1544709695.2,286047005.4,N
1544709715.0,286047003.1,N
1544709715.9,286047003.1,N
1544709735.7,286047001.7,N
1544709755.6,286047004.2,N
1544709775.4,286047004.3,N
1544709795.3,286047005.9,Y
1544709815.1,286047004.0,P
1544709816.0,286047004.0,P
1544709835.8,286047002.2,P
1544709855.7,286047004.2,Y
1544709875.5,286046998.7,P
1544709895.4,286046998.3,N
1544709915.2,286046998.5,N
1544709935.0,286046997.0,N
1544709935.9,286046997.0,N
1544709955.8,286046995.1,N
1544709975.6,286046996.6,N
1544709995.4,286046996.6,N
1544710015.3,286046996.9,N
1544710035.1,286046997.1,N
1544710055.9,286047000.8,N
1544710075.7,286046999.0,N
1544710095.5,286046997.1,N
1544710115.4,286046997.7,N
1544710135.2,286046994.9,N
1544710155.0,286046996.5,N
1544710155.9,286046996.5,N
1544710175.8,286046998.9,N
1544710195.6,286046998.4,N
1544710215.5,286046999.0,N
1544710235.3,286046998.5,N
1544710255.1,286046998.9,N
1544710275.9,286046999.3,N
1544710295.7,286046997.8,N
1544710315.5,286047011.9,Y
1544710335.4,286046999.2,P
1544710355.2,286046997.9,P
1544710375.1,286046997.8,P
1544710376.0,286046997.8,Y
1544710395.8,286046997.2,P
1544710415.6,286046995.7,P
1544710435.5,286046995.6,P
1544710455.3,286046996.3,Y
1544710475.2,286046997.2,P
1544710495.9,286046998.3,P
1544710515.7,286046999.4,N
1544710535.6,286046998.4,N
1544710555.4,286047000.3,N
1544710575.2,286046998.5,N
1544710595.1,286047000.8,N
1544710596.0,286047000.8,N
1544710615.8,286047000.7,N
1544710635.7,286047001.2,N
1544710655.5,286046999.1,N
1544710675.3,286046998.1,N
1544710695.2,286046998.2,N
1544710715.0,286046998.3,N
1544710715.9,286046998.3,N
1544710735.8,286046998.9,N
1544710755.6,286046998.7,N
1544710775.4,286047000.8,N
1544710795.3,286046998.2,N
1544710815.1,286047001.2,N
1544710835.8,286046998.5,N
1544710855.7,286046998.6,N
1544710875.5,286047001.1,N
1544710895.4,286047001.1,N
1544710915.2,286046996.5,N
1544710935.0,286046996.6,N
1544710935.9,286046996.6,N
1544710955.8,286046999.3,N
1544710975.6,286047001.1,N
1544710995.4,286046997.2,N
1544711015.3,286046997.1,N
1544711035.1,286046997.6,N
1544711055.9,286046997.0,N
1544711075.7,286046995.3,Y
1544711095.5,286046996.9,P
1544711115.4,286046997.0,N
1544711135.2,286046998.7,N
1544711155.1,286046999.4,N
1544711156.0,286046999.4,N
1544711175.8,286047001.2,N
1544711195.6,286046998.7,N
1544711215.5,286046998.7,N
1544711235.3,286047000.6,N
1544711255.1,286047000.5,N
1544711275.9,286047002.2,N
1544711295.7,286046998.5,N
1544711315.6,286046998.3,N
1544711335.4,286046996.5,N
1544711355.2,286047000.9,N
1544711375.1,286047001.0,N
1544711376.0,286047001.0,N
1544711395.8,286046998.8,N
1544711415.7,286046998.6,N
1544711435.5,286046999.4,N
1544711455.3,286046999.6,N
1544711475.2,286046996.9,N
1544711495.0,286046998.6,N
1544711495.9,286046998.6,N
1544711515.7,286046998.3,N
1544711535.6,286046999.3,N
1544711555.4,286046998.1,N
1544711575.3,286046998.5,N
1544711595.1,286046998.2,N
1544711596.0,286046998.2,N
1544711615.8,286047000.3,N
1544711635.7,286046999.9,N
1544711655.5,286046999.8,N
1544711675.3,286047000.3,N
1544711695.2,286046999.7,N
1544711715.0,286047002.2,N
1544711715.9,286047002.2,N
1544711735.8,286047002.6,N
1544711755.6,286047001.4,N
1544711775.4,286047003.7,N
1544711795.3,286047003.8,N
1544711815.1,286047002.2,N
1544711835.9,286047001.5,N
1544711855.7,286047001.5,N
1544711875.5,286047003.9,N
1544711895.4,286047004.0,N
1544711915.2,286047003.9,N
1544711935.0,286047004.3,N
1544711936.0,286047004.3,N
1544711955.8,286047003.1,N
1544711975.6,286047003.3,N
1544711995.5,286047003.8,N
1544712015.3,286047001.4,N
1544712035.1,286047003.7,N
1544712055.9,286047003.8,N
1544712075.7,286047004.0,N
1544712095.6,286047005.6,N
1544712115.4,286047005.9,N
1544712135.2,286047004.7,N
1544712155.1,286047007.1,Y
1544712156.0,286047007.1,P
1544712175.8,286047003.7,N
1544712195.7,286047005.2,N
1544712215.5,286047004.2,N
1544712235.3,286047003.8,N
1544712255.2,286047005.3,Y
1544712275.0,286047000.8,P
1544712275.9,286047000.8,N
1544712295.7,286047000.0,N
1544712315.6,286047000.1,N
1544712335.4,286047001.4,N
1544712355.3,286047001.4,N
1544712375.1,286047004.0,N
1544712376.0,286047004.0,N
1544712395.8,286047001.4,N
1544712415.7,286047003.5,N
1544712435.5,286047004.0,N
1544712455.4,286047003.9,N
1544712475.2,286047003.8,N
1544712495.0,286047001.8,N
1544712495.9,286047001.8,N
1544712515.8,286047004.1,N
1544712535.6,286047003.8,N
1544712555.4,286047003.9,N
1544712575.3,286047004.2,N
1544712595.1,286047003.6,N
1544712615.9,286047003.4,N
1544712635.7,286047005.9,Y
1544712655.5,286047002.6,P
1544712675.4,286047001.5,P
1544712695.2,286047004.4,P
1544712715.1,286047005.5,Y
1544712716.0,286047005.5,P
1544712735.8,286047002.4,N
1544712755.6,286047002.2,N
1544712775.5,286047000.0,N
1544712795.3,286047002.2,N
1544712815.1,286047001.7,N
1544712835.9,286047001.3,N
1544712855.7,286047002.3,N
1544712875.6,286047000.1,N
1544712895.4,286047000.1,N
1544712915.2,286047000.6,N
1544712935.1,286047000.7,N
1544712936.0,286047000.7,N
1544712955.8,286047000.2,N
1544712975.6,286047003.8,N
1544712995.5,286047005.7,Y
1544713015.3,286047003.8,P
1544713035.2,286047003.8,P
1544713055.9,286047001.3,N
1544713075.7,286047003.8,Y
1544713095.6,286047002.6,P
1544713115.4,286047000.2,P
1544713135.3,286047000.4,N
1544713155.1,286047001.5,N
1544713156.0,286047001.5,N
1544713175.8,286047003.6,Y
1544713195.7,286047000.0,P
